TimeCET,TemperatureF,Dew PointF,Humidity,Sea Level PressureIn,VisibilityMPH,Wind Direction,Wind SpeedMPH,Gust SpeedMPH,PrecipitationIn,Events,Conditions,WindDirDegrees,DateUTC
12:00 AM,50.0,46.4,87,30.09,6.2,Calm,Calm,-,N/A,,Mostly Cloudy,0,2012-11-08 23:00:00
12:30 AM,50.0,46.4,87,30.09,6.2,South,1.2,-,N/A,,Scattered Clouds,180,2012-11-08 23:30:00
1:00 AM,50,46,82,30.07,,Calm,Calm,,,,,,2012-11-09 00:00:00
1:00 AM,48.2,44.6,87,30.06,6.2,Calm,Calm,-,N/A,,Scattered Clouds,0,2012-11-09 00:00:00
1:30 AM,48.2,46.4,93,30.09,6.2,Variable,1.2,-,N/A,,Scattered Clouds,0,2012-11-09 00:30:00
2:00 AM,46.4,44.6,93,30.06,6.2,Calm,Calm,-,N/A,,Scattered Clouds,0,2012-11-09 01:00:00
2:30 AM,48.2,48.2,100,30.06,6.2,NNE,1.2,-,N/A,,Scattered Clouds,30,2012-11-09 01:30:00
3:00 AM,46.4,46.4,100,30.06,6.2,West,2.3,-,N/A,,Scattered Clouds,260,2012-11-09 02:00:00
3:30 AM,46.4,46.4,100,30.04,6.2,NW,1.2,-,N/A,,Scattered Clouds,320,2012-11-09 02:30:00
4:00 AM,48.2,46.4,93,30.04,6.2,Variable,2.3,-,N/A,,Scattered Clouds,0,2012-11-09 03:00:00
4:30 AM,46.4,44.6,93,30.04,6.2,Calm,Calm,-,N/A,,Scattered Clouds,0,2012-11-09 03:30:00
5:00 AM,46.4,46.4,100,30.01,6.2,Calm,Calm,-,N/A,,Scattered Clouds,0,2012-11-09 04:00:00
5:30 AM,46.4,44.6,93,30.01,6.2,Calm,Calm,-,N/A,,Scattered Clouds,0,2012-11-09 04:30:00
6:00 AM,46.4,44.6,93,30.01,6.2,Calm,Calm,-,N/A,,Scattered Clouds,0,2012-11-09 05:00:00
6:30 AM,46.4,44.6,93,30.01,6.2,Calm,Calm,-,N/A,,Partly Cloudy,0,2012-11-09 05:30:00
7:00 AM,47,43,81,30.00,,NE,5.8,,,,,50,2012-11-09 06:00:00
7:00 AM,46.4,44.6,93,30.01,6.2,NE,6.9,-,N/A,,Partly Cloudy,40,2012-11-09 06:00:00
7:30 AM,46.4,44.6,93,30.01,6.2,NNE,3.5,-,N/A,,Partly Cloudy,20,2012-11-09 06:30:00
8:00 AM,46.4,44.6,93,30.01,6.2,Variable,1.2,-,N/A,,Partly Cloudy,0,2012-11-09 07:00:00
8:30 AM,48.2,46.4,93,29.98,6.2,NNE,2.3,-,N/A,,Partly Cloudy,20,2012-11-09 07:30:00
9:00 AM,51.8,46.4,82,29.98,6.2,Variable,2.3,-,N/A,,Partly Cloudy,0,2012-11-09 08:00:00
9:30 AM,55.4,46.4,72,30.01,6.2,Calm,Calm,-,N/A,,Partly Cloudy,0,2012-11-09 08:30:00
10:30 AM,53.6,46.4,77,30.04,6.2,South,4.6,-,N/A,,Partly Cloudy,190,2012-11-09 09:30:00
11:00 AM,55.4,46.4,72,30.01,6.2,Variable,2.3,-,N/A,,Scattered Clouds,0,2012-11-09 10:00:00
11:30 AM,57.2,46.4,67,30.04,6.2,Calm,Calm,-,N/A,,Scattered Clouds,0,2012-11-09 10:30:00
12:00 PM,59.0,42.8,55,30.01,6.2,Variable,1.2,-,N/A,,Scattered Clouds,0,2012-11-09 11:00:00
12:30 PM,59.0,44.6,59,29.98,6.2,Variable,2.3,-,N/A,,Scattered Clouds,0,2012-11-09 11:30:00
1:00 PM,62,47,49,29.95,12,SW,1.2,,,Rain,Light Drizzle,230,2012-11-09 12:00:00
1:00 PM,59.0,44.6,59,29.95,6.2,Calm,Calm,-,N/A,,Light Drizzle,0,2012-11-09 12:00:00
1:30 PM,60.8,46.4,59,29.95,6.2,Variable,2.3,-,N/A,,Light Drizzle,0,2012-11-09 12:30:00
2:00 PM,62.6,50.0,63,29.95,6.2,Variable,2.3,-,N/A,,Light Drizzle,0,2012-11-09 13:00:00
2:30 PM,64.4,48.2,56,29.95,6.2,West,3.5,-,N/A,,Light Drizzle,260,2012-11-09 13:30:00
3:30 PM,64.4,46.4,52,29.95,6.2,SSW,5.8,-,N/A,,Scattered Clouds,200,2012-11-09 14:30:00
4:00 PM,64.4,42.8,45,29.92,6.2,SSE,6.9,-,N/A,,Scattered Clouds,150,2012-11-09 15:00:00
4:30 PM,62.6,44.6,52,29.92,6.2,South,3.5,-,N/A,,Scattered Clouds,170,2012-11-09 15:30:00
5:00 PM,60.8,46.4,59,29.92,6.2,South,3.5,-,N/A,,Scattered Clouds,170,2012-11-09 16:00:00
5:30 PM,60.8,46.4,59,29.92,6.2,Variable,1.2,-,N/A,,Scattered Clouds,0,2012-11-09 16:30:00
6:00 PM,59.0,46.4,63,29.92,6.2,SW,3.5,-,N/A,,Scattered Clouds,230,2012-11-09 17:00:00
6:30 PM,57.2,46.4,67,29.92,6.2,South,6.9,-,N/A,,Scattered Clouds,190,2012-11-09 17:30:00
7:00 PM,59,47,56,29.91,12,South,6.9,,,,Mostly Cloudy,180,2012-11-09 18:00:00
7:00 PM,59.0,46.4,63,29.92,6.2,South,5.8,-,N/A,,Scattered Clouds,180,2012-11-09 18:00:00
7:30 PM,57.2,46.4,67,29.92,6.2,South,6.9,-,N/A,,Scattered Clouds,190,2012-11-09 18:30:00
8:00 PM,57.2,48.2,72,29.92,6.2,SW,3.5,-,N/A,,Scattered Clouds,220,2012-11-09 19:00:00
8:30 PM,55.4,48.2,77,29.92,6.2,Calm,Calm,-,N/A,,Scattered Clouds,0,2012-11-09 19:30:00
9:00 PM,55.4,50.0,82,29.89,6.2,WSW,3.5,-,N/A,,Scattered Clouds,240,2012-11-09 20:00:00
9:30 PM,57.2,51.8,82,29.89,6.2,SW,3.5,-,N/A,,Scattered Clouds,230,2012-11-09 20:30:00
10:00 PM,55.4,51.8,88,29.89,6.2,Calm,Calm,-,N/A,,Scattered Clouds,0,2012-11-09 21:00:00
10:30 PM,55.4,51.8,88,29.89,6.2,WSW,1.2,-,N/A,,Scattered Clouds,240,2012-11-09 21:30:00
11:00 PM,55.4,51.8,88,29.89,6.2,Calm,Calm,-,N/A,,Drizzle,0,2012-11-09 22:00:00
11:30 PM,55.4,53.6,94,29.86,6.2,Calm,Calm,-,N/A,,Scattered Clouds,0,2012-11-09 22:30:00